Regional Weather Roundup
Issued by NWS

Home | Current Version | Previous Version | Graphics & Text | Print | Product List | Glossary On
Versions: 1 2 3 4 5 6 7 8 9 10 11 12 13 14 15 16 17 18 19 20 21 22 23 24 25 26 27 28 29 30 31 32 33 34 35 36 37 38 39 40 41 42 43 44 45 46 47 48 49 50
000
ASUS43 KTOP 271208
RWRKS

WEATHER ROUNDUP FOR KANSAS
NATIONAL WEATHER SERVICE GOODLAND KS
600 AM CST THU NOV 27 2014

NOTE:  "FAIR" INDICATES FEW OR NO CLOUDS BELOW 12,000 FEET WITH NO
SIGNIFICANT WEATHER AND/OR OBSTRUCTIONS TO VISIBILITY.

KSZ001>006-013>018-027>032-041>047-271300-
NORTHWEST KANSAS

CITY           SKY/WX    TMP DP  RH WIND       PRES   REMARKS
GOODLAND       CLEAR     23  18  81 S8        30.29S
6HR MIN TEMP:  23; 6HR MAX TEMP:  26;

HAYS           PTCLDY    21   9  58 SE6       30.44R
HILL CITY      CLEAR     21  15  78 CALM      30.41S
6HR MIN TEMP:  20; 6HR MAX TEMP:  33;

RUSSELL        PTCLDY    20  16  84 SE5       30.45S
6HR MIN TEMP:  20; 6HR MAX TEMP:  29;

$$

KSZ061>065-074>080-084>089-271300-
SOUTHWEST KANSAS

CITY           SKY/WX    TMP DP  RH WIND       PRES   REMARKS
DODGE CITY     CLEAR     20  14  77 S7        30.42F
6HR MIN TEMP:  20; 6HR MAX TEMP:  28;

ELKHART          N/A     26  16  66 S6          N/A
GARDEN CITY    CLEAR     19  15  84 S7        30.39F
6HR MIN TEMP:  19; 6HR MAX TEMP:  23;

GREAT BEND     FAIR      21  12  68 CALM      30.46F
LIBERAL        PTCLDY    23  14  68 SW8       30.42F
PRATT          CLEAR     21  18  86 W3        30.46S
$$

KSZ066>073-081>083-090>101-271300-
SOUTHEAST KANSAS

CITY           SKY/WX    TMP DP  RH WIND       PRES   REMARKS
CHANUTE        CLEAR     21  18  88 NW3       30.50R
6HR MIN TEMP:  20; 6HR MAX TEMP:  28;

COFFEYVILLE    CLEAR     23  19  85 W6        30.53R
6HR MIN TEMP:  23; 6HR MAX TEMP:  30;

HUTCHINSON     CLEAR     17  11  77 CALM      30.49R
6HR MIN TEMP:  16; 6HR MAX TEMP:  31;

MEDICINE LODGE   N/A     19  17  92 N3        30.47F
NEWTON         CLEAR     21  12  68 W3        30.50R
PARSONS        CLEAR     19  17  92 NW6       30.51R
6HR MIN TEMP:  18; 6HR MAX TEMP:  29;

WICHITA INTL   CLEAR     25  17  72 N6        30.49S
6HR MIN TEMP:  22; 6HR MAX TEMP:  33;

WICHITA JABRA  CLEAR     22  17  81 NW3       30.49S
6HR MIN TEMP:  20; 6HR MAX TEMP:  30;

WICHITA MCCONL CLEAR     24  20  85 N5        30.49S
WINFIELD       CLEAR     23  18  81 N5        30.51R
6HR MIN TEMP:  23; 6HR MAX TEMP:  32;

$$

KSZ007>012-019>026-033>040-048>060-102>105-271300-
NORTHEAST KANSAS

CITY           SKY/WX    TMP DP  RH WIND       PRES   REMARKS
CONCORDIA      CLEAR     16  12  84 SW5       30.48R
6HR MIN TEMP:  16; 6HR MAX TEMP:  22;

EMPORIA        CLEAR     18  15  88 W5        30.49R
6HR MIN TEMP:  17; 6HR MAX TEMP:  24;

LAWRENCE       CLOUDY    24  19  81 N12       30.49F HAZE    WCI  13
6HR MIN TEMP:  20; 6HR MAX TEMP:  28;

MANHATTAN      CLEAR     18  15  88 N3        30.50S
6HR MIN TEMP:  14; 6HR MAX TEMP:  23;

MARYSVILLE     CLOUDY    18  14  86 CALM      30.48S
OLATHE IND     MOCLDY    21  18  88 N6        30.47S
6HR MIN TEMP:  20; 6HR MAX TEMP:  28;

OLATHE EXE     PTCLDY    24  20  84 N9        30.46R
6HR MIN TEMP:  24; 6HR MAX TEMP:  28;

SALINA         PTCLDY    21  14  74 CALM      30.51R
6HR MIN TEMP:  21; 6HR MAX TEMP:  28;

TOPEKA BILLARD CLOUDY    25  19  78 NE8       30.50S
6HR MIN TEMP:  23; 6HR MAX TEMP:  28;

TOPEKA FORBES  CLOUDY    24  19  81 N5        30.49R
6HR MIN TEMP:  20; 6HR MAX TEMP:  28;

$$


USA.gov is the U.S. government's official web portal to all federal, state and local government web resources and services.